Whippany, NJ

2:09 AM EDT on September 26, 2016 (GMT -0400)
Morristown Municipal

Weather History for KMMU - November, 2011

Change the Weather History Date:

Tuesday, November 8, 2011

  Actual Average Record
Temperature  
Mean Temperature 53 °F -  
Max Temperature 71 °F 54 °F 75 °F (1945)
Min Temperature 35 °F 34 °F 18 °F (1931)
Degree Days  
Heating Degree Days 12    
Growing Degree Days 3 (Base 50)    
Moisture  
Dew Point 42 °F    
Average Humidity 87    
Maximum Humidity 100    
Minimum Humidity 46    
Precipitation  
Precipitation 0.00 in - - ()
Sea Level Pressure  
Sea Level Pressure 30.24 in    
Wind  
Wind Speed 1 mph (SE)    
Max Wind Speed 7 mph    
Max Gust Speed -    
Visibility 8 miles    
Events Fog    
Averages and records for this station are not official NWS values.
T = Trace of Precipitation, MM = Missing Value Source: NWS Daily Summary

Daily Weather History Graph

Daily Weather History Graph

Search for Another Location

Airport or City:

Trip Planner

Search our weather history database for the weather conditions in past years. The results will help you decide how hot, cold, wet, or windy it might be!

Date:

Astronomy

Nov. 08, 2011 Rise Set
Actual Time 6:36 AM EST 4:46 PM EST
Civil Twilight 6:07 AM EST 5:15 PM EST
Nautical Twilight 5:34 AM EST 5:47 PM EST
Astronomical Twilight 5:02 AM EST 6:19 PM EST
Moon 3:25 PM EST (11/8) 4:32 AM EST (11/8)
Length of Visible Light 11h 08m
Length of Day
10h 10m
Waxing Gibbous, 96% of the Moon is Illuminated
Nov 8
Waxing Gibbous
Nov 10
Full
Nov 18
Last Quarter
Nov 25
New
Dec 2
First Quarter

Hourly Weather History & Observations

Time (EST) Temp. Dew Point Humidity Pressure Visibility Wind Dir Wind Speed Gust Speed Precip Events Conditions
12:15 AM 39.2 °F 37.4 °F 93% 30.26 in 7.0 mi Calm Calm - N/A   Unknown
12:35 AM 39.2 °F 39.2 °F 100% 30.26 in 7.0 mi Calm Calm - N/A   Unknown
12:55 AM 39.2 °F 39.2 °F 100% 30.26 in 7.0 mi Calm Calm - N/A   Unknown
1:15 AM 39.2 °F 37.4 °F 93% 30.25 in 10.0 mi Calm Calm - N/A   Unknown
1:35 AM 39.2 °F 39.2 °F 100% 30.25 in 10.0 mi Calm Calm - N/A   Unknown
1:55 AM 37.4 °F 37.4 °F 100% 30.25 in 5.0 mi Calm Calm - N/A   Mist
2:15 AM 39.2 °F 37.4 °F 93% 30.25 in 10.0 mi Calm Calm - N/A   Unknown
2:35 AM 37.4 °F 37.4 °F 100% 30.24 in 7.0 mi Calm Calm - N/A   Unknown
2:55 AM 37.4 °F 37.4 °F 100% 30.24 in 10.0 mi Calm Calm - N/A   Unknown
3:15 AM 37.4 °F 37.4 °F 100% 30.24 in 10.0 mi Calm Calm - N/A   Unknown
3:35 AM 37.4 °F 37.4 °F 100% 30.24 in 4.0 mi Calm Calm - N/A   Mist
3:55 AM 37.4 °F 37.4 °F 100% 30.25 in 10.0 mi Calm Calm - N/A   Unknown
4:15 AM 37.4 °F 37.4 °F 100% 30.25 in 10.0 mi Calm Calm - N/A   Unknown
4:35 AM 35.6 °F 35.6 °F 100% 30.26 in 7.0 mi Calm Calm - N/A   Unknown
4:55 AM 37.4 °F 37.4 °F 100% 30.26 in 10.0 mi Calm Calm - N/A   Unknown
5:15 AM 35.6 °F 35.6 °F 100% 30.26 in 7.0 mi Calm Calm - N/A   Unknown
5:35 AM 37.4 °F 37.4 °F 100% 30.26 in 7.0 mi Calm Calm - N/A   Unknown
6:45 AM 37.4 °F 35.6 °F 93% 30.27 in 4.0 mi Calm Calm - N/A Fog Shallow Fog
7:45 AM 42.8 °F 41.0 °F 93% 30.29 in 4.0 mi Calm Calm - N/A   Haze
8:45 AM 50.0 °F 44.6 °F 82% 30.29 in 10.0 mi Calm Calm - N/A   Clear
9:45 AM 60.8 °F 46.4 °F 59% 30.28 in 10.0 mi SSE 3.5 mph - N/A   Clear
10:45 AM 66.2 °F 46.4 °F 49% 30.27 in 10.0 mi SSE 6.9 mph - N/A   Clear
11:45 AM 68.0 °F 48.2 °F 49% 30.25 in 10.0 mi ENE 4.6 mph - N/A   Clear
12:45 PM 69.8 °F 48.2 °F 46% 30.22 in 10.0 mi NE 3.5 mph - N/A   Clear
1:45 PM 69.8 °F 50.0 °F 49% 30.21 in 10.0 mi SSE 4.6 mph - N/A   Clear
2:45 PM 71.6 °F 50.0 °F 46% 30.20 in 10.0 mi SE 5.8 mph - N/A   Clear
3:45 PM 66.2 °F 48.2 °F 52% 30.21 in 10.0 mi SSE 6.9 mph - N/A   Clear
4:45 PM 64.4 °F 48.2 °F 56% 30.21 in 10.0 mi Calm Calm - N/A   Clear
5:45 PM 57.2 °F 48.2 °F 72% 30.22 in 10.0 mi SSW 3.5 mph - N/A   Clear
6:45 PM 50.0 °F 46.4 °F 87% 30.23 in 10.0 mi Calm Calm - N/A   Clear
7:45 PM 50.0 °F 46.4 °F 87% 30.23 in 10.0 mi Calm Calm - N/A   Clear
8:45 PM 48.2 °F 46.4 °F 93% 30.24 in 10.0 mi Calm Calm - N/A   Clear
9:45 PM 46.4 °F 44.6 °F 93% 30.26 in 10.0 mi Calm Calm - N/A   Clear
9:55 PM 42.8 °F 42.8 °F 100% 30.24 in 5.0 mi Calm Calm - N/A   Mist
10:15 PM 42.8 °F 42.8 °F 100% 30.24 in 10.0 mi Calm Calm - N/A   Unknown
10:35 PM 42.8 °F 42.8 °F 100% 30.23 in 5.0 mi Calm Calm - N/A   Mist
10:55 PM 41.0 °F 41.0 °F 100% 30.23 in 0.5 mi Calm Calm - N/A Fog Fog
11:15 PM 41.0 °F 41.0 °F 100% 30.23 in 1.5 mi Calm Calm - N/A   Mist
11:35 PM 41.0 °F 41.0 °F 100% 30.22 in 7.0 mi Calm Calm - N/A   Unknown
11:55 PM 41.0 °F 41.0 °F 100% 30.22 in 3.0 mi Calm Calm - N/A   Mist